Tracking 25612 objects as of 21-May-2022
HD Live streaming from Space Station
objects crossing your sky now

SL-12 R/B(AUX MOTOR)

Track SL-12 R/B(AUX MOTOR) now!
10-day predictions


NORAD ID: 32280
Int'l Code: 2007-052F
Perigee: 783.2 km
Apogee: 18,831.5 km
Inclination: 65.2 °
Period: 341.3 minutes
Semi major axis: 16178 km
RCS: 0.553 m2 (medium)
Launch date: October 26, 2007
Source: Commonwealth of Independent States (former USSR) (CIS)
Launch site: TYURATAM MISSILE AND SPACE COMPLEX (TTMTR)

Note: This is a ROCKET BODY
aabbcc
Your satellite tracking list
Your tracking list is empty




NASA's NSSDC Master Catalog

Two Line Element Set (TLE):
1 32280U 07052F   22138.88965072  .00000045  00000-0 -57001-4 0  9997
2 32280  65.2384 107.3402 5577907 298.4960  16.7782  4.21891228130147
Source of the keplerian elements: AFSPC